STARLINK-3058 (49138 NORAD) Tracking and Keplerian Element Data

This shows tracking and keplerian element data for the satellite.

Feedback or suggestion? Click here.




ElementValue
Catalog49138
NameSTARLINK-3058
Epoch Orbit697
Epoch Day300.91667824
Epoch Year2021
RAAN3.7932
Inclination70.0013
Eccentricity0.0004098
Argument of Perigee290.1259
Mean Anonmoly146.7911
Mean Motion15.69708259
Decay Rate0.00023201
L11 49138U 21082J 21300.91667824 .00023201 00000-0 19589-3 0 9990
L22 49138 70.0013 3.7932 0004098 290.1259 146.7911 15.69708259 6974

Live tracking and technical data element details for STARLINK-3058 (NORAD 49138). STARLINK-3058 can be tracked NOW for your location showing map with azimuth and elevation plus other details from your city location.

Track the satellite on the map from your city or location and see movement details for azimuth, elevation, latitude, longitude, range, height, and movement on the map or in text.







IsCatalogInMostPopularTable: catalog: 49138, numindb: 13
Update: records affected: 1



GetName: 49138 STARLINK-3058

Hit Count: updated at: Thu, 28 Oct 2021 11:16:52 GMT